Regional Weather Roundup
Issued by NWS

Home | Current Version | Previous Version | Text Only | Print | Product List | Glossary On
Versions: 1 2 3 4 5 6 7 8 9 10 11 12 13 14 15 16 17 18 19 20 21 22 23 24 25 26 27 28 29 30 31 32 33 34 35 36 37 38 39 40 41 42 43 44 45 46 47 48 49 50
000
ASUS44 KJAN 210103
RWRMS

MISSISSIPPI HOURLY WEATHER ROUNDUP
NATIONAL WEATHER SERVICE JACKSON MS
700 PM CST THU NOV 20 2014

NOTE: "FAIR: INDICATES FEW OR NO CLOUDS BELOW 12,000 FEET WITH NO
SIGNIFICANT WEATHER AND/OR OBSTRUCTIONS TO VISIBILITY.

MSZ001>002-007>008-010>013-018>021-025>028-034>036-210200-
NORTHWEST MISSISSIPPI

CITY           SKY/WX    TMP DP  RH WIND       PRES   REMARKS
CLARKSDALE     FAIR      48  37  66 CALM      30.20S
CLEVELAND      FAIR      48  47  94 E6        30.18F
GREENWOOD      PTCLDY    49  45  86 CALM      30.20R
GREENVILLE     CLOUDY    51  48  89 SE5       30.18S
GRENADA        FAIR      45  43  93 CALM      30.20S
OLIVE BRANCH   MOCLDY    46  30  53 CALM      30.21S
OXFORD         FAIR      41  36  81 E3        30.22S
TUNICA         CLEAR     45  34  65 CALM      30.21R
$$

MSZ003>006-009-014>017-022>024-029>033-037>039-210200-
NORTHEAST MISSISSIPPI

CITY           SKY/WX    TMP DP  RH WIND       PRES   REMARKS
COLUMBUS AFB   CLOUDY    51  44  76 CALM      30.22R
CORINTH        MOCLDY    43  28  56 CALM      30.23R
GOLDN TRIANGLE MOCLDY    54  41  62 CALM      30.22R
STARKVILLE       N/A    N/A N/A N/A MISG        N/A
TUPELO         CLOUDY    49  37  63 NE3       30.22R
$$

MSZ040-058-210200-
CENTRAL MISSISSIPPI

CITY           SKY/WX    TMP DP  RH WIND       PRES   REMARKS
JACKSON INTL   CLOUDY    56  50  80 SE7       30.19S
JACKSON HAWKNS MOCLDY    54  48  80 CALM      30.19S
MERIDIAN KEY   PTCLDY    50  46  86 CALM      30.22R
MERIDIAN NAS   MOCLDY    52  48  86 CALM      30.23R
RAYMOND        FAIR      54  48  82 CALM      30.19R
VICKSBURG      CLEAR     53  50  89 E5        30.17S
$$

MSZ059>079-210200-
SOUTH MISSISSIPPI

CITY           SKY/WX    TMP DP  RH WIND       PRES   REMARKS
BROOKHAVEN     FAIR      54  50  87 CALM      30.21R
HATTIESBURG    PTCLDY    58  44  60 S8        30.23R
MCCOMB         CLEAR     56  46  69 S3        30.21R
NATCHEZ        CLEAR     55  46  71 SE7       30.18S
PINE BELT      PTCLDY    57  43  58 S5        30.22R
$$

MSZ080>082-210200-
COASTAL MISSISSIPPI

CITY           SKY/WX    TMP DP  RH WIND       PRES   REMARKS
BILOXI         CLEAR     53  48  84 S2        30.23S
PASCAGOULA     CLEAR     45  44  97 CALM      30.24S
GULFPORT       CLEAR     51  44  77 CALM      30.23R
$$



USA.gov is the U.S. government's official web portal to all federal, state and local government web resources and services.